Loisir ou Compétition : Rejoignez un Club de la Fédération

Résultats

38e Grand-Prix du Pays Rochois

LES GLIERES

KO-QLF Dames

Jury de Compétition

Délégué Technique :
DOMENGE JEAN NOEL (MB)
D.T. Adjoint :
OLLIVIER PLAUD ALIX (MB)
Dir. Epreuve :
ROGUET JEAN CLAUDE (MB)

Caractéristiques de la Piste

Piste :
PLATEAU DES GLIERES
Distance :
2.4 km
Point Haut :
 
Point Bas :
 
Montée Tot. :
 
Montée Max. :
 
Homologation :
2018-33-1

Pénalité Appliquée :
 
Coefficient :
 

Catégorie :
U13
Style :
L
Clt Dos Clt/Cat Code An Nom Prénom Com Club Temps Ecart Points
Classés
1 2 1/U13 FFS2684764 2007 GACHET EMMA MB CS MEGEVE 5:33.61 00.00
2 3 2/U13 FFS2692044 2007 CANET CLOE MB CS LA CLUSAZ 5:35.29 01.68
3 11 3/U13 FFS2670506 2007 AILLOUD LUCIE MB VILLARD/BOEG 5:42.21 08.60
4 8 4/U13 FFS2702072 2007 PAWLIKOWSKI ELISE MB SCNP ROCHOIS 5:44.12 10.51
5 1 5/U13 FFS2696901 2007 OLIVA JULIETTE MB SALLANCHES 5:44.69 11.08
6 21 6/U13 FFS2696373 2007 REZVOY LUCIE MB CS LA CLUSAZ 5:47.30 13.69
7 9 7/U13 FFS2696903 2007 PINEL JULIA MB SALLANCHES 5:49.06 15.45
8 23 8/U13 FFS2699864 2007 GASSILLOUD EMMA MB VILLARD/BOEG 5:51.01 17.40
9 15 9/U13 FFS2696649 2007 GODEY EMILIE MB CS CHAMONIX 5:52.41 18.80
10 6 10/U13 FFS2696621 2007 PALLUD BAMBOU MB DRAGONS ANNY 5:52.62 19.01
11 24 11/U13 FFS2696303 2007 ROUX HELOISE MB SC CONTAMINE 5:57.43 23.82
12 26 12/U13 FFS2692041 2007 PROFIT ELINE MB CS LA CLUSAZ 5:57.97 24.36
13 13 13/U13 FFS2696908 2007 SCHMITT COLINE MB SALLANCHES 6:00.41 26.80
14 10 14/U13 FFS2696535 2007 BETRIX MELINA MB CHABLAIS NOR 6:01.94 28.33
15 16 15/U13 FFS2680468 2007 GAUDILLAT AGATHE MB SC D'AGY 6:02.02 28.41
16 5 16/U13 FFS2696423 2007 ALAIS ANGELE MB SC GD BORNAN 6:02.64 29.03
17 18 17/U13 FFS2696870 2007 CHARDON MATHILDE MB VILLARD/BOEG 6:02.81 29.20
18 17 18/U13 FFS2697711 2007 ISABELLA LOUISON MB VILLARD/BOEG 6:05.35 31.74
19 31 19/U13 FFS2702415 2007 BERTRAND LEONORE MB CNG 6:07.00 33.39
20 20 20/U13 FFS2692037 2007 LOUBIERE PORET ISALINE MB CS LA CLUSAZ 6:09.21 35.60
21 22 21/U13 FFS2696424 2007 BASTARD ROSSET NELLY MB SC GD BORNAN 6:09.59 35.98
22 29 22/U13 FFS2702418 2007 PETROD JULIE MB CNG 6:09.99 36.38
23 12 23/U13 FFS2678277 2007 PICCOT JADE MB VILLARD/BOEG 6:11.61 38.00
24 34 24/U13 FFS2696997 2007 TEYSSIER LISE MB SCNP ROCHOIS 6:11.74 38.13
25 7 25/U13 FFS2697569 2007 DELERCE CAMILLE MB SC D'AGY 6:12.31 38.70
26 30 26/U13 FFS2679359 2007 ESTEVES GUER PAULINE MB CS MEGEVE 6:14.17 40.56
27 35 27/U13 FFS2683076 2007 SAVEL LEA MB VILLARD/BOEG 6:16.48 42.87
28 28 28/U13 FFS2696371 2007 HUSSONG FLORE MB CS LA CLUSAZ 6:17.29 43.68
29 32 29/U13 FFS2697961 2007 OREMUS JUDITH MB VILLARD/BOEG 6:17.80 44.19
30 25 30/U13 FFS2690260 2007 PASCUAL NINA MB LES GETS S.C 6:20.91 47.30
31 36 31/U13 FFS2697565 2007 SALOMON EVIE MB SC D'AGY 6:21.43 47.82
32 38 32/U13 FFS2696827 2007 CONTANT ISALIE MB PRAZ LYS-SOM 6:24.67 51.06
33 33 33/U13 FFS2678871 2007 FAVRE BONVIN MAYA MB SC GD BORNAN 6:26.55 52.94
34 19 34/U13 FFS2696432 2007 PERRILLAT COLLOMB AGATHE MB SC GD BORNAN 6:36.27 1:02.66
35 40 35/U13 FFS2697567 2007 DEBALME MARIE LOU MB SC D'AGY 6:42.58 1:08.97
36 27 36/U13 FFS2696620 2007 JUIGNIER SINTUREL MAYA MB DRAGONS ANNY 6:43.02 1:09.41
37 37 37/U13 FFS2702551 2007 FERRAND LEA MB DRAGONS ANNY 6:49.70 1:16.09
38 39 38/U13 FFS2696664 2007 VANKREN LENA MB CS ARGENTIER 7:21.99 1:48.38
39 41 39/U13 FFS2705256 2007 CRAVERO JAIONA MB SC CONTAMINE 7:28.55 1:54.94